Location: Unspecified
(0.0000°N, 0.0000°E)
Time: 10:59:09
(UTC+00:00)

N. Korean satellite - Pass Details

Date: 15 February 2019
Orbit: 457 x 508 km, 97.2° (Epoch: 22 April)

Event Time Altitude Azimuth Distance (km) Brightness Sun altitude
Rises 18:39:27 0° 202° (SSW) 2,609 10.8 -6.2°
Reaches altitude 10° 18:42:29 10° 230° (SW) 1,723 10.5 -6.9°
Maximum altitude 18:44:16 13° 259° (WSW) 1,536 10.7 -7.4°
Drops below altitude 10° 18:46:03 10° 288° (WNW) 1,720 10.4 -7.8°
Sets 18:49:05 0° 316° (NW) 2,598 10.7 -8.5°
